Location: Berg
(48.5667°N, 13.9833°E)
Time: 07:52:33
(UTC+00:00)

Cosmos 1174 - Visible Passes

Search period start: 11 August 2020 00:00
Search period end: 21 August 2020 00:00
Orbit: 365 x 1153 km, 66.1° (Epoch: 10 August)

Date Brightness Start Highest point End Pass type
(mag) Time Alt. Az. Time Alt. Az. Time Alt. Az.
13 Aug 6.5 03:12:07 10° SSE 03:15:11 19° ESE 03:18:45 10° ENE visible
14 Aug 6.9 02:33:52 10° ESE 02:35:22 12° E 02:36:58 10° E visible
16 Aug 5.8 02:52:48 10° S 02:56:37 32° ESE 03:01:19 10° NE visible
17 Aug 6.4 02:13:31 10° SSE 02:16:41 20° ESE 02:20:25 10° ENE visible
18 Aug 6.7 01:35:08 10° ESE 01:36:52 12° E 01:38:45 10° ENE visible
18 Aug 4.4 03:14:02 10° SSW 03:18:25 85° SE 03:24:03 10° NE visible
19 Aug 4.9 02:34:35 14° SSW 02:38:12 54° ESE 02:43:35 10° NE visible
20 Aug 5.6 01:55:35 19° SSE 01:58:08 33° ESE 02:02:57 10° NE visible
